AT994 Weather Reports


time (UTC)temp
C
wind
direction
speed
KPH
gust
KPH
rain 1hr
cm
rain 24hr
cm
rain mn
cm
humidity
%
barometer
mb
20260510070753 10 203 0.0 0.0 0.00 0.30 0.00 89 1007.5
20260510065753 11 203 0.0 0.0 0.00 0.30 0.00 89 1007.6
20260510064753 11 203 0.0 0.0 0.00 0.30 0.00 89 1007.3
20260510063748 11 203 0.0 0.0 0.00 0.30 0.00 89 1007.4
20260510062748 11 203 0.0 0.0 0.00 0.30 0.00 88 1007.4
20260510061748 11 203 0.0 0.0 0.00 0.30 0.00 88 1007.3
20260510060749 11 203 0.0 0.0 0.00 0.30 0.00 88 1007.2
20260510055749 10 203 0.0 0.0 0.00 0.30 0.00 88 1007.1
20260510054749 10 203 0.0 0.0 0.00 0.30 0.00 89 1006.9
20260510053749 10 200 0.0 0.0 0.00 0.30 0.00 88 1006.8
20260510052748 10 200 0.0 0.0 0.00 0.30 0.00 88 1006.8
20260510052228 10 200 0.0 0.0 0.00 0.30 0.00 88 1006.7
20260510051225 11 200 0.0 0.0 0.00 0.30 0.00 87 1006.3
20260510045740 11 200 0.0 0.0 0.00 0.30 0.00 87 1006.1
20260510044741 11 200 0.0 0.0 0.00 0.30 0.00 87 1006.1
20260510043740 11 202 0.0 0.0 0.00 0.30 0.00 86 1006.1
20260510042741 11 202 0.0 0.0 0.00 0.30 0.00 86 1006.0
20260510041740 11 203 0.0 0.0 0.00 0.30 0.00 86 1005.9
20260510040740 11 203 0.0 0.0 0.00 0.30 0.00 86 1005.8
20260510035737 11 202 0.0 0.0 0.00 0.30 0.30 86 1005.9
20260510035211 11 204 0.0 0.0 0.00 0.30 0.30 86 1005.9
20260510033731 11 204 0.0 0.0 0.00 0.30 0.30 86 1005.8
20260510032731 11 204 0.0 0.0 0.00 0.30 0.30 86 1005.5
20260510031732 11 203 0.0 0.0 0.00 0.30 0.30 86 1005.3
20260510030730 11 201 0.0 1.6 0.00 0.30 0.30 86 1005.2
20260510025729 11 199 0.0 1.6 0.00 0.30 0.30 86 1005.1
20260510024729 11 195 0.0 1.6 0.00 0.30 0.30 86 1005.0
20260510023729 11 190 0.0 0.0 0.00 0.30 0.30 86 1005.0
20260510022729 11 218 0.0 0.0 0.00 0.30 0.30 86 1004.9
20260510022653 11 200 0.0 4.8 0.00 0.30 0.30 87 1004.9
20260510020730 11 205 0.0 0.0 0.00 0.30 0.30 87 1004.8
20260510015730 11 213 0.0 1.6 0.00 0.30 0.30 87 1004.5
20260510014730 11 204 0.0 6.4 0.00 0.30 0.30 87 1004.6
20260510013729 11 216 0.0 1.6 0.00 0.30 0.30 87 1004.7
20260510013638 11 223 0.0 3.2 0.05 0.30 0.30 87 1004.6
20260510011729 12 228 0.0 9.7 0.08 0.30 0.30 86 1004.2
20260510010729 12 208 1.6 14.5 0.10 0.30 0.30 86 1004.2
20260510005728 11 211 1.6 16.1 0.30 0.30 0.30 87 1004.1
20260510005657 11 189 1.6 16.1 0.30 0.30 0.30 88 1003.8
20260510003728 11 220 0.0 16.1 0.30 0.30 0.30 88 1004.7
20260510002728 11 271 0.0 9.7 0.25 0.25 0.25 88 1004.7
20260510002700 11 200 0.0 17.7 0.23 0.23 0.23 87 1004.6
20260510000729 12 240 1.6 27.4 0.20 0.20 0.20 83 1004.6
20260509235728 16 284 0.0 30.6 0.00 0.00 0.00 61 1004.8
20260509234729 18 189 0.0 0.0 0.00 0.00 0.00 55 1002.5
20260509233728 18 190 0.0 0.0 0.00 0.00 0.00 54 1002.3
20260509232729 18 134 0.0 1.6 0.00 0.00 0.00 53 1001.9
20260509231729 18 148 0.0 1.6 0.00 0.00 0.00 52 1001.9
20260509231205 18 147 0.0 0.0 0.00 0.00 0.00 52 1001.8
20260509225729 19 150 0.0 0.0 0.00 0.00 0.00 52 1002.2
20260509224729 19 209 0.0 3.2 0.00 0.00 0.00 51 1002.2
20260509223730 19 227 0.0 9.7 0.00 0.00 0.00 50 1002.2
20260509222729 19 200 0.0 11.3 0.00 0.00 0.00 51 1002.5
20260509221729 19 205 0.0 8.0 0.00 0.00 0.00 51 1002.5
20260509220729 19 217 0.0 8.0 0.00 0.00 0.00 49 1002.5
20260509215729 19 169 0.0 11.3 0.00 0.00 0.00 50 1002.3
20260509214729 19 175 1.6 20.9 0.00 0.00 0.00 50 1002.3
20260509214210 19 200 1.6 17.7 0.00 0.00 0.00 52 1002.5
20260509212729 19 206 1.6 19.3 0.00 0.00 0.00 52 1002.4
20260509212207 20 239 1.6 12.9 0.00 0.00 0.00 52 1002.3
20260509210728 19 171 3.2 17.7 0.00 0.00 0.00 52 1002.3
20260509205728 20 195 1.6 16.1 0.00 0.00 0.00 52 1002.1
20260509205207 20 135 1.6 20.9 0.00 0.00 0.00 50 1002.2
20260509203728 20 214 0.0 14.5 0.00 0.00 0.00 51 1002.0
20260509202728 21 214 0.0 12.9 0.00 0.00 0.00 50 1002.3
20260509202205 20 192 1.6 25.7 0.00 0.00 0.00 51 1002.4
20260509200728 20 227 1.6 19.3 0.00 0.00 0.00 51 1002.5
20260509195726 20 194 1.6 17.7 0.00 0.00 0.00 51 1002.7
20260509194725 20 194 0.0 12.9 0.00 0.00 0.00 51 1003.0
20260509193720 20 194 0.0 12.9 0.00 0.00 0.00 52 1003.1
20260509192720 20 192 0.0 16.1 0.00 0.00 0.00 53 1003.0
20260509191720 20 198 0.0 12.9 0.00 0.00 0.00 53 1003.1
20260509191154 20 194 0.0 9.7 0.00 0.00 0.00 46 1003.0
20260509185720 20 196 0.0 9.7 0.00 0.00 0.00 48 1003.2
20260509184720 20 193 1.6 12.9 0.00 0.00 0.00 47 1003.4
20260509184156 20 204 0.0 19.3 0.00 0.00 0.00 49 1003.5
20260509182720 19 158 0.0 8.0 0.00 0.00 0.00 50 1003.7
20260509181720 18 157 0.0 11.3 0.00 0.00 0.00 57 1003.9
20260509180720 17 128 0.0 0.0 0.00 0.00 0.00 63 1004.2
20260509175720 17 128 0.0 0.0 0.00 0.00 0.00 63 1004.2
20260509174720 16 128 0.0 3.2 0.00 0.00 0.00 66 1004.3
20260509174157 16 136 0.0 0.0 0.00 0.00 0.00 64 1004.4
20260509172721 17 137 0.0 0.0 0.00 0.00 0.00 62 1004.5
20260509171720 18 137 0.0 3.2 0.00 0.00 0.00 57 1004.5
20260509171158 18 136 0.0 3.2 0.00 0.00 0.00 57 1004.6
20260509165720 18 136 0.0 1.6 0.00 0.00 0.00 58 1004.7
20260509164720 17 136 0.0 0.0 0.00 0.00 0.00 61 1004.8
20260509163718 17 136 0.0 1.6 0.00 0.00 0.00 60 1004.9
20260509162718 17 136 0.0 6.4 0.00 0.00 0.00 58 1005.0
20260509161717 17 134 0.0 0.0 0.00 0.00 0.00 61 1005.3
20260509160718 17 134 0.0 3.2 0.00 0.00 0.00 64 1005.5
20260509155718 17 134 0.0 1.6 0.00 0.00 0.00 61 1005.6
20260509154717 16 134 0.0 4.8 0.00 0.00 0.00 62 1005.7
20260509153718 17 132 0.0 11.3 0.00 0.00 0.00 60 1005.8
20260509152717 17 130 0.0 0.0 0.00 0.00 0.00 64 1005.8
20260509151714 16 130 0.0 0.0 0.00 0.00 0.00 65 1005.9
20260509150713 17 130 0.0 0.0 0.00 0.00 0.00 64 1006.0
20260509145713 16 130 0.0 1.6 0.00 0.00 0.00 65 1006.0
20260509144713 15 130 0.0 0.0 0.00 0.00 0.00 70 1006.1
20260509143713 15 132 0.0 1.6 0.00 0.00 0.00 68 1006.2
20260509143146 15 132 0.0 1.6 0.00 0.00 0.00 69 1006.3
20260509141708 15 0 0.0 6.4 0.00 0.00 0.00 71 1006.4
20260509141619 14 0 0.0 0.0 0.00 0.00 0.00 72 1006.4
20260509135707 14 129 0.0 4.8 0.00 0.00 0.00 73 1006.4
20260509134707 13 127 0.0 4.8 0.00 0.00 0.00 74 1006.5
20260509133707 13 123 0.0 4.8 0.00 0.00 0.00 74 1006.6
20260509132707 13 121 0.0 6.4 0.00 0.00 0.00 75 1006.7
20260509132146 12 115 0.0 4.8 0.00 0.00 0.00 76 1006.9
20260509130707 12 109 0.0 1.6 0.00 0.00 0.00 76 1006.9
20260509125703 12 108 0.0 1.6 0.00 0.00 0.00 77 1007.0
20260509124701 11 108 0.0 6.4 0.00 0.03 0.00 77 1007.1
20260509123701 11 106 0.0 0.0 0.00 0.05 0.00 77 1007.3
20260509122701 11 105 0.0 0.0 0.00 0.05 0.00 76 1007.2
20260509121701 10 104 0.0 0.0 0.00 0.05 0.00 76 1007.2
20260509120701 10 105 0.0 0.0 0.00 0.05 0.00 76 1007.1
20260509115700 9 105 0.0 0.0 0.00 0.05 0.00 76 1007.3
20260509114701 8 0 0.0 0.0 0.00 0.05 0.00 75 1007.2
20260509113701 8 104 0.0 0.0 0.00 0.05 0.00 75 1007.3
20260509112701 8 104 0.0 0.0 0.00 0.05 0.00 74 1007.4
20260509111701 7 104 0.0 0.0 0.00 0.05 0.00 74 1007.3
20260509111139 7 104 0.0 1.6 0.00 0.05 0.00 74 1007.5
20260509105701 7 103 0.0 3.2 0.00 0.05 0.00 74 1007.3
20260509104701 7 103 0.0 1.6 0.00 0.05 0.00 74 1007.3
20260509104141 6 103 0.0 0.0 0.00 0.05 0.00 74 1007.2
20260509102701 6 103 0.0 0.0 0.00 0.05 0.00 73 1007.2
20260509101701 6 103 0.0 0.0 0.00 0.05 0.00 73 1007.1
20260509100701 6 103 0.0 0.0 0.00 0.05 0.00 72 1007.1
20260509095701 6 103 0.0 0.0 0.00 0.05 0.00 72 1007.1
20260509094701 6 103 0.0 0.0 0.00 0.05 0.00 72 1007.2
20260509093700 6 103 0.0 0.0 0.00 0.05 0.00 72 1007.3
20260509093139 6 103 0.0 0.0 0.00 0.05 0.00 72 1007.2
20260509092144 6 103 0.0 0.0 0.00 0.05 0.00 72 1007.2
20260509090701 6 103 0.0 0.0 0.00 0.05 0.00 72 1007.3
20260509085701 6 103 0.0 0.0 0.00 0.05 0.00 72 1007.4
20260509084701 6 103 0.0 0.0 0.00 0.05 0.00 72 1007.4
20260509083701 5 103 0.0 1.6 0.00 0.05 0.00 73 1007.5
20260509082701 5 103 0.0 0.0 0.00 0.05 0.00 73 1007.6
20260509081701 5 103 0.0 0.0 0.00 0.05 0.00 73 1007.6
20260509080702 5 103 0.0 0.0 0.00 0.05 0.00 73 1007.7
20260509075702 5 103 0.0 0.0 0.00 0.05 0.00 73 1007.8
20260509074701 5 103 0.0 0.0 0.00 0.05 0.00 72 1007.8
20260509073702 5 103 0.0 0.0 0.00 0.05 0.00 72 1007.9
20260509072702 5 103 0.0 0.0 0.00 0.05 0.00 72 1008.0
20260509071702 6 103 0.0 0.0 0.00 0.05 0.00 72 1008.1